Phuket, Thailand

7:58 AM +07 on June 27, 2017 (GMT +0700)
Phuket International

Weather History for VTSP - February, 2013

Change the Weather History Date:

Wednesday, February 20, 2013

  Actual Average Record
Temperature  
Mean Temperature 82 °F -  
Max Temperature 91 °F 92 °F 100 °F (2003)
Min Temperature 73 °F 76 °F 69 °F (2014)
Cooling Degree Days 17    
Growing Degree Days 32 (Base 50)    
Moisture  
Dew Point 71 °F    
Average Humidity 70    
Maximum Humidity 94    
Minimum Humidity 36    
Precipitation  
Precipitation 0.00 in 0.07 in - ()
Sea Level Pressure  
Sea Level Pressure 29.81 in    
Wind  
Wind Speed 3 mph ()    
Max Wind Speed 15 mph    
Max Gust Speed -    
Visibility 5.8 miles    
Events      
Averages and records for this station are not official NWS values.
T = Trace of Precipitation, MM = Missing Value Source: Averaged Metar Reports

Daily Weather History Graph

Daily Weather History Graph

Search for Another Location

Airport or City:

Trip Planner

Search our weather history database for the weather conditions in past years. The results will help you decide how hot, cold, wet, or windy it might be!

Date:

Astronomy

Feb. 20, 2013 Rise Set
Actual Time 6:43 AM +07 6:37 PM +07
Civil Twilight 6:22 AM +07 6:58 PM +07
Nautical Twilight 5:57 AM +07 7:23 PM +07
Astronomical Twilight 5:33 AM +07 7:48 PM +07
Moon 2:05 PM +07 (2/20) 2:05 AM +07 (2/20)
Length of Visible Light 12h 36m
Length of Day
11h 54m
Waxing Gibbous, 71% of the Moon is Illuminated
Feb 20
Waxing Gibbous
Feb 26
Full
Mar 5
Last Quarter
Mar 12
New
Mar 20
First Quarter

Hourly Weather History & Observations

Time (+07) Temp. Heat Index Dew Point Humidity Pressure Visibility Wind Dir Wind Speed Gust Speed Precip Events Conditions
12:00 AM 75.2 °F - 69.8 °F 83% 29.86 in 5.6 mi Calm Calm - N/A   Scattered Clouds
12:30 AM 75.2 °F - 71.6 °F 89% 29.86 in 5.0 mi Calm Calm - N/A   Mostly Cloudy
1:00 AM 77 °F - 72 °F 80% 29.81 in 6 mi Calm Calm - -   Mist
1:00 AM 75.2 °F - 71.6 °F 89% 29.83 in 5.0 mi SSE 3.5 mph - N/A   Mostly Cloudy
1:30 AM 75.2 °F - 71.6 °F 89% 29.83 in 5.0 mi Calm Calm - N/A   Mostly Cloudy
2:00 AM 75.2 °F - 71.6 °F 89% 29.83 in 5.6 mi Calm Calm - N/A   Mostly Cloudy
2:30 AM 75.2 °F - 71.6 °F 89% 29.83 in 5.6 mi Calm Calm - N/A   Mostly Cloudy
3:00 AM 75.2 °F - 71.6 °F 89% 29.80 in 5.6 mi Calm Calm - N/A   Mostly Cloudy
3:30 AM 75.2 °F - 71.6 °F 89% 29.80 in 5.6 mi Calm Calm - N/A   Scattered Clouds
4:00 AM 75.2 °F - 71.6 °F 89% 29.80 in 5.6 mi Calm Calm - N/A   Scattered Clouds
4:30 AM 75.2 °F - 71.6 °F 89% 29.80 in 5.6 mi Calm Calm - N/A   Scattered Clouds
5:30 AM 73.4 °F - 71.6 °F 94% 29.80 in 5.6 mi Calm Calm - N/A   Scattered Clouds
6:00 AM 75.2 °F - 71.6 °F 89% 29.80 in 5.6 mi Calm Calm - N/A   Scattered Clouds
7:30 AM 77.0 °F - 71.6 °F 83% 29.80 in 5.0 mi Calm Calm - N/A   Scattered Clouds
8:30 AM 84.2 °F 89.6 °F 71.6 °F 66% 29.83 in 5.0 mi East 3.5 mph - N/A   Scattered Clouds
9:00 AM 84.2 °F 89.6 °F 71.6 °F 66% 29.86 in 6.2 mi East 9.2 mph - N/A   Scattered Clouds
9:30 AM 86.0 °F 90.4 °F 69.8 °F 58% 29.86 in 6.2 mi East 8.1 mph - N/A   Scattered Clouds
10:00 AM 87.8 °F 92.6 °F 69.8 °F 55% 29.86 in 6.2 mi East 6.9 mph - N/A   Scattered Clouds
10:30 AM 87.8 °F 91.4 °F 68.0 °F 52% 29.86 in 6.2 mi East 5.8 mph - N/A   Scattered Clouds
11:00 AM 89.6 °F 94.7 °F 69.8 °F 52% 29.86 in 6.2 mi ENE 5.8 mph - N/A   Scattered Clouds
11:30 AM 89.6 °F 96.2 °F 71.6 °F 55% 29.83 in 6.2 mi East 5.8 mph - N/A   Scattered Clouds
12:00 PM 89.6 °F 96.2 °F 71.6 °F 55% 29.83 in 6.2 mi NNW 5.8 mph - N/A   Mostly Cloudy
12:30 PM 91.4 °F 95.4 °F 68.0 °F 46% 29.83 in 6.2 mi East 8.1 mph - N/A   Mostly Cloudy
1:00 PM 92 °F - 72 °F 42% 29.80 in 6 mi NNW 5.8 mph - -   Scattered Clouds
1:00 PM 91.4 °F 91.4 °F 60.8 °F 36% 29.80 in 6.2 mi ENE 8.1 mph - N/A   Mostly Cloudy
1:30 PM 91.4 °F 93.2 °F 64.4 °F 41% 29.80 in 6.2 mi Variable 5.8 mph - N/A   Mostly Cloudy
2:00 PM 93.2 °F 98.8 °F 69.8 °F 46% 29.77 in 6.2 mi Variable 6.9 mph - N/A   Scattered Clouds
2:30 PM 91.4 °F 98.4 °F 71.6 °F 52% 29.77 in 5.6 mi Variable 8.1 mph - N/A   Scattered Clouds
3:00 PM 89.6 °F 96.2 °F 71.6 °F 55% 29.74 in 5.6 mi Variable 6.9 mph - N/A   Scattered Clouds
3:30 PM 87.8 °F 93.8 °F 71.6 °F 58% 29.74 in 6.2 mi West 4.6 mph - N/A   Scattered Clouds
4:00 PM 87.8 °F 93.8 °F 71.6 °F 58% 29.74 in - West 12.7 mph - N/A   Scattered Clouds
4:30 PM 87.8 °F 93.8 °F 71.6 °F 58% 29.74 in 6.2 mi WSW 13.8 mph - N/A   Scattered Clouds
5:30 PM 86.0 °F 91.8 °F 71.6 °F 62% 29.74 in 6.2 mi West 15.0 mph - N/A   Scattered Clouds
6:00 PM 86.0 °F 91.8 °F 71.6 °F 62% 29.77 in 6.2 mi West 11.5 mph - N/A   Scattered Clouds
6:30 PM 84.2 °F 89.6 °F 71.6 °F 66% 29.77 in 6.2 mi WNW 9.2 mph - N/A   Scattered Clouds
7:00 PM 86 °F - 74 °F 61% 29.74 in 6 mi West 3.5 mph - -   Scattered Clouds
7:00 PM 84.2 °F 89.6 °F 71.6 °F 66% 29.77 in 6.2 mi WNW 6.9 mph - N/A   Scattered Clouds
7:30 PM 84.2 °F 89.6 °F 71.6 °F 66% 29.80 in 6.2 mi West 10.4 mph - N/A   Partly Cloudy
8:00 PM 82.4 °F 87.2 °F 71.6 °F 70% 29.80 in 6.2 mi WNW 5.8 mph - N/A   Partly Cloudy
8:30 PM 78.8 °F - 71.6 °F 78% 29.83 in 6.2 mi Calm Calm - N/A   Scattered Clouds
9:00 PM 78.8 °F - 73.4 °F 83% 29.83 in 5.6 mi Calm Calm - N/A   Scattered Clouds
9:30 PM 78.8 °F - 71.6 °F 78% 29.83 in 5.6 mi Calm Calm - N/A   Scattered Clouds
10:00 PM 77.0 °F - 73.4 °F 89% 29.86 in 5.6 mi Calm Calm - N/A   Scattered Clouds
10:30 PM 77.0 °F - 73.4 °F 89% 29.86 in 5.6 mi ESE 3.5 mph - N/A   Scattered Clouds
11:00 PM 77.0 °F - 73.4 °F 89% 29.86 in 5.6 mi Calm Calm - N/A   Scattered Clouds